Flag for New Caledonia

Past Weather in 22°39'37.9"S, 167°26'15.1"E, New Caledonia — Yesterday and Last 2 Weeks

Currently: 66 °F. Passing clouds. (Weather station: La Tontouta Nlle-Caledonie, New Caledonia). See more current weather

Past Weather in 22°39'37.9"S, 167°26'15.1"E — Graph

°F

22°39'37.9"S, 167°26'15.1"E Temperature Yesterday

Maximum temperature yesterday: 77 °F (at 12:00 pm)
Minimum temperature yesterday: 59 °F (at 2:00 am)
Average temperature yesterday: 67 °F

High & Low Weather Summary for the Past Weeks

 TemperatureHumidityPressure
High84 °F (Jun 28, 10:30 am)100% (Jun 17, 2:00 am)30.15 "Hg (Jun 17, 2:00 am)
Low55 °F (Jun 23, 5:00 am)47% (Jun 20, 2:00 pm)29.80 "Hg (Jun 19, 12:00 pm)
Average70 °F81%30.00 "Hg
* Reported Jun 16 8:00 am — Jul 1 8:00 am, 22°39'37.9"S, 167°26'15.1"E. Weather by CustomWeather, © 2022

Note: Actual official high and low records may vary slightly from our data, if they occured in-between our weather recording intervals... More about our weather records

22°39'37.9"S, 167°26'15.1"E Weather History for the Previous 24 Hours

Scroll right to see more
 ConditionsComfort  
Time TempWeatherWind HumidityBarometerVisibility
8:00 am
Fri, Jul 1
66 °FSunny.No wind68%30.12 "Hg10 mi
7:30 am64 °FSunny.1 mph73%30.12 "Hg10 mi
7:00 am63 °FSunny.3 mph77%30.09 "Hg10 mi
6:00 am63 °FPassing clouds.3 mph77%30.09 "HgN/A
5:30 am63 °FPassing clouds.3 mph77%30.07 "HgN/A
5:00 am63 °FPassing clouds.3 mph77%30.07 "HgN/A
4:00 am63 °FOvercast.3 mph83%30.07 "HgN/A
3:00 am63 °FOvercast.2 mph83%30.09 "HgN/A
2:00 am63 °FPassing clouds.1 mph83%30.09 "HgN/A
1:00 am66 °FPassing clouds.2 mph73%30.12 "HgN/A
12:30 am64 °FOvercast.5 mph83%30.09 "HgN/A
11:00 pm
Thu, Jun 30
66 °FOvercast.No wind78%30.09 "HgN/A
10:00 pm64 °FOvercast.No wind83%30.12 "HgN/A
9:30 pm66 °FPartly cloudy.1 mph78%30.09 "HgN/A
9:00 pm66 °FPassing clouds.2 mph78%30.09 "HgN/A
8:30 pm64 °FPassing clouds.2 mph83%30.09 "HgN/A
8:00 pm64 °FClear.5 mph83%30.07 "Hg10 mi
7:30 pm66 °FPassing clouds.5 mph83%30.07 "HgN/A
7:00 pm68 °FPassing clouds.2 mph78%30.07 "HgN/A
6:30 pm68 °FPassing clouds.3 mph78%30.07 "HgN/A
6:00 pm68 °FPassing clouds.6 mph78%30.04 "HgN/A
5:00 pm72 °FSunny.8 mph69%30.04 "Hg10 mi
4:00 pm73 °FSunny.12 mph65%30.04 "Hg10 mi
3:30 pm75 °FSunny.13 mph61%30.04 "Hg10 mi
3:00 pm77 °FSunny.13 mph57%30.04 "Hg10 mi
2:30 pm77 °FPassing clouds.14 mph57%30.04 "HgN/A
2:00 pm77 °FMostly cloudy.12 mph57%30.04 "HgN/A
1:30 pm77 °FOvercast.5 mph61%30.07 "HgN/A
1:00 pm75 °FPartly sunny.6 mph61%30.07 "HgN/A
12:30 pm77 °FScattered clouds.5 mph54%30.07 "HgN/A
12:00 pm77 °FPartly sunny.6 mph54%30.09 "HgN/A
10:30 am75 °FPassing clouds.3 mph61%30.12 "HgN/A
9:30 am72 °FSunny.2 mph65%30.12 "Hg10 mi
9:00 am70 °FSunny.1 mph69%30.12 "Hg10 mi
Weather by CustomWeather, © 2022

See weather overview